Anderson, SC

5:39 PM EDT on July 28, 2016 (GMT -0400)
Anderson Regional

Weather History for KAND - February, 2013

Change the Weather History Date:

Friday, February 8, 2013

  Actual Average Record
Temperature  
Mean Temperature 50 °F -  
Max Temperature 60 °F 53 °F 73 °F (1965)
Min Temperature 37 °F 31 °F 15 °F (1951)
Degree Days  
Heating Degree Days 14    
Moisture  
Dew Point 40 °F    
Average Humidity 73    
Maximum Humidity 100    
Minimum Humidity 45    
Precipitation  
Precipitation 0.00 in - - ()
Sea Level Pressure  
Sea Level Pressure 29.98 in    
Wind  
Wind Speed 6 mph (West)    
Max Wind Speed 15 mph    
Max Gust Speed -    
Visibility 10 miles    
Events      
Averages and records for this station are not official NWS values.
T = Trace of Precipitation, MM = Missing Value Source: NWS Daily Summary

Daily Weather History Graph

Daily Weather History Graph

Search for Another Location

Airport or City:

Trip Planner

Search our weather history database for the weather conditions in past years. The results will help you decide how hot, cold, wet, or windy it might be!

Date:

Astronomy

Feb. 08, 2013 Rise Set
Actual Time 7:22 AM EST 6:07 PM EST
Civil Twilight 6:56 AM EST 6:33 PM EST
Nautical Twilight 6:26 AM EST 7:03 PM EST
Astronomical Twilight 5:57 AM EST 7:32 PM EST
Moon 5:48 AM EST (2/8) 4:41 PM EST (2/8)
Length of Visible Light 11h 37m
Length of Day
10h 45m
Waning Crescent, 3% of the Moon is Illuminated
Feb 8
Waning Crescent
Feb 10
New
Feb 17
First Quarter
Feb 25
Full
Mar 4
Last Quarter

Hourly Weather History & Observations

Time (EST) Temp. Windchill Dew Point Humidity Pressure Visibility Wind Dir Wind Speed Gust Speed Precip Events Conditions
12:56 AM 44.1 °F 40.1 °F 42.1 °F 93% 29.94 in 10.0 mi NE 6.9 mph - N/A   Overcast
1:56 AM 44.1 °F 40.1 °F 42.1 °F 93% 29.94 in 10.0 mi Variable 6.9 mph - N/A   Overcast
2:56 AM 44.1 °F - 41.0 °F 89% 29.94 in 10.0 mi Calm Calm - N/A   Overcast
3:36 AM 44.6 °F - 41.0 °F 87% 29.94 in 10.0 mi Calm Calm - N/A   Overcast
3:56 AM 44.1 °F - 41.0 °F 89% 29.93 in 10.0 mi Calm Calm - N/A   Overcast
4:56 AM 44.1 °F - 41.0 °F 89% 29.93 in 10.0 mi Calm Calm - N/A   Overcast
5:56 AM 42.1 °F - 41.0 °F 96% 29.94 in 10.0 mi Calm Calm - N/A   Mostly Cloudy
6:56 AM 41.0 °F 38.0 °F 39.9 °F 96% 29.96 in 10.0 mi WSW 4.6 mph - N/A   Mostly Cloudy
7:56 AM 42.1 °F 39.2 °F 42.1 °F 100% 29.98 in 10.0 mi SSW 4.6 mph - N/A   Overcast
8:56 AM 45.0 °F 43.5 °F 43.0 °F 93% 29.99 in 10.0 mi WSW 3.5 mph - N/A   Overcast
9:56 AM 48.0 °F - 43.0 °F 83% 29.99 in 10.0 mi SW 5.8 mph - N/A   Mostly Cloudy
10:56 AM 51.1 °F - 44.1 °F 77% 29.99 in 10.0 mi SW 11.5 mph - N/A   Overcast
11:56 AM 54.0 °F - 45.0 °F 72% 29.98 in 10.0 mi WSW 10.4 mph - N/A   Mostly Cloudy
12:56 PM 57.0 °F - 46.0 °F 67% 29.96 in 10.0 mi West 10.4 mph - N/A   Overcast
1:52 PM 57.2 °F - 46.4 °F 67% 29.94 in 10.0 mi West 15.0 mph - N/A   Scattered Clouds
1:56 PM 57.0 °F - 46.0 °F 67% 29.94 in 10.0 mi West 13.8 mph - N/A   Partly Cloudy
2:56 PM 59.0 °F - 46.0 °F 62% 29.92 in 10.0 mi West 10.4 mph - N/A   Clear
3:56 PM 60.1 °F - 46.0 °F 60% 29.93 in 10.0 mi West 12.7 mph - N/A   Scattered Clouds
4:56 PM 60.1 °F - 44.1 °F 55% 29.95 in 10.0 mi WNW 12.7 mph - N/A   Scattered Clouds
5:56 PM 55.9 °F - 35.1 °F 45% 29.97 in 10.0 mi WNW 9.2 mph - N/A   Clear
6:56 PM 52.0 °F - 30.9 °F 45% 30.00 in 10.0 mi WNW 9.2 mph - N/A   Clear
7:56 PM 48.9 °F - 30.0 °F 48% 30.03 in 10.0 mi NW 4.6 mph - N/A   Clear
8:56 PM 46.9 °F - 30.9 °F 54% 30.06 in 10.0 mi Calm Calm - N/A   Clear
9:56 PM 46.9 °F - 30.0 °F 52% 30.08 in 10.0 mi NNW 4.6 mph - N/A   Clear
10:56 PM 45.0 °F 43.5 °F 27.0 °F 49% 30.11 in 10.0 mi NNE 3.5 mph - N/A   Clear
11:56 PM 37.9 °F 34.4 °F 30.0 °F 73% 30.13 in 10.0 mi NE 4.6 mph - N/A   Clear